This is the latest recevied weather packets stored in our database for station/object W7BTL. If no packets are shown the sender has not sent any weather packets the latest 10 day(s).
| Time | Temp. | Humidity | Pressure | Rain* | Wind** | Luminosity | Snow |
|---|---|---|---|---|---|---|---|
| 1788207504 | 31.11° C | 48% | 1012.8 hPa | 0 mm | - | 976 W/m² | - |
| 1788207203 | 30.56° C | 51% | 1012.8 hPa | 0 mm | - | 978 W/m² | - |
| 1788206899 | 30.56° C | 49% | 1012.8 hPa | 0 mm | - | 982 W/m² | - |
| 1788206594 | 30.56° C | 48% | 1012.9 hPa | 0 mm | - | 971 W/m² | - |
| 1788206289 | 30.56° C | 51% | 1012.8 hPa | 0 mm | - | 979 W/m² | - |
| 1788205985 | 30° C | 52% | 1012.9 hPa | 0 mm | - | 978 W/m² | - |
| 1788205680 | 30.56° C | 50% | 1012.7 hPa | 0 mm | - | 981 W/m² | - |
| 1788205376 | 30.56° C | 50% | 1012.9 hPa | 0 mm | - | 977 W/m² | - |
| 1788205075 | 30.56° C | 52% | 1012.9 hPa | 0 mm | - | 902 W/m² | - |
| 1788204770 | 30.56° C | 51% | 1013 hPa | 0 mm | - | 979 W/m² | - |
| 1788204465 | 31.11° C | 49% | 1013 hPa | 0 mm | - | 965 W/m² | - |
| 1788204160 | 30.56° C | 52% | 1013.2 hPa | 0 mm | - | 966 W/m² | - |
| 1788203856 | 30° C | 54% | 1013.1 hPa | 0 mm | - | 964 W/m² | - |
| 1788203552 | 30° C | 52% | 1013 hPa | 0 mm | - | 947 W/m² | - |
| 1788203253 | 30° C | 51% | 1013.1 hPa | 0 mm | - | 943 W/m² | - |
| 1788202953 | 29.44° C | 53% | 1013.1 hPa | 0 mm | - | 947 W/m² | - |
| 1788202647 | 30° C | 54% | 1013.2 hPa | 0 mm | - | 935 W/m² | - |
| 1788202343 | 30° C | 51% | 1013.4 hPa | 0 mm | - | 916 W/m² | - |
| 1788202042 | 29.44° C | 53% | 1013.4 hPa | 0 mm | - | 910 W/m² | - |
| 1788201738 | 30° C | 53% | 1013.5 hPa | 0 mm | - | 871 W/m² | - |
| 1788201438 | 29.44° C | 53% | 1013.5 hPa | 0 mm | - | 899 W/m² | - |
| 1788201138 | 28.89° C | 55% | 1013.5 hPa | 0 mm | - | 757 W/m² | - |
| 1788200837 | 28.89° C | 53% | 1013.4 hPa | 0 mm | - | 886 W/m² | - |
| 1788200533 | 28.89° C | 54% | 1013.5 hPa | 0 mm | - | 875 W/m² | - |
| 1788200232 | 29.44° C | 53% | 1013.4 hPa | 0 mm | - | 873 W/m² | - |
* Rain latest hour (hover to see other rain measurements)
** Current wind speed in m/s (hover to see current wind gust speed)